When you browse on this site, cookies collect data to enhance your experience and personalize the content and advertising you see.
Visit our Privacy Policy to learn more. By continuing to use the site, you agree to this use of cookies and data.
  • In Austria
  • List of Countries
  • For 7 days
  • Water Temperature
  • Weather Map
  • News
  • Weather Widgets
  • user-avatar
    Login

    Hourly Weather Beja

    Today, 9 April, Thursday

    Time Temperature Precipitation Wind Pressure Humidity
    00:00 +14°C° 0 mm 1 mps 743 mmHg 91%
    01:00 +13°C° 0 mm 0 mps 742 mmHg 92%
    02:00 +13°C° 0 mm 0 mps 742 mmHg 93%
    03:00 +13°C° 0 mm 0 mps 742 mmHg 92%
    04:00 +13°C° 0 mm 0 mps 742 mmHg 91%
    05:00 +13°C° 0 mm 0 mps 742 mmHg 91%
    06:00 +15°C° 0.1 mm 1 mps 742 mmHg 89%
    07:00 +16°C° 0.1 mm 1 mps 743 mmHg 87%
    08:00 +16°C° 0.1 mm 1 mps 743 mmHg 85%
    09:00 +16°C° 0.5 mm 1 mps 743 mmHg 87%
    10:00 +16°C° 0.5 mm 1 mps 743 mmHg 88%
    11:00 +16°C° 0.5 mm 1 mps 743 mmHg 90%
    12:00 +18°C° 0.4 mm 1 mps 743 mmHg 87%
    13:00 +19°C° 0.4 mm 1 mps 743 mmHg 83%
    14:00 +20°C° 0.4 mm 1 mps 742 mmHg 80%
    15:00 +20°C° 0.3 mm 1 mps 743 mmHg 82%
    16:00 +19°C° 0.3 mm 1 mps 743 mmHg 84%
    17:00 +18°C° 0.3 mm 2 mps 743 mmHg 86%
    18:00 +17°C° 0.1 mm 2 mps 743 mmHg 88%
    19:00 +16°C° 0.1 mm 2 mps 744 mmHg 90%
    20:00 +15°C° 0.1 mm 2 mps 744 mmHg 91%
    21:00 +15°C° 0 mm 1 mps 744 mmHg 92%
    22:00 +14°C° 0 mm 1 mps 744 mmHg 92%
    23:00 +13°C° 0 mm 1 mps 744 mmHg 93%

    Tomorrow, 10 April, Friday

    Time Temperature Precipitation Wind Pressure Humidity
    00:00 +13°C° 0 mm 1 mps 744 mmHg 93%
    01:00 +12°C° 0 mm 1 mps 744 mmHg 93%
    02:00 +12°C° 0 mm 1 mps 743 mmHg 93%
    03:00 +12°C° 0 mm 1 mps 743 mmHg 93%
    04:00 +11°C° 0 mm 1 mps 744 mmHg 93%
    05:00 +11°C° 0 mm 1 mps 744 mmHg 94%
    06:00 +13°C° 0 mm 1 mps 744 mmHg 90%
    07:00 +15°C° 0 mm 1 mps 745 mmHg 86%
    08:00 +18°C° 0 mm 1 mps 745 mmHg 82%
    09:00 +19°C° 0 mm 1 mps 745 mmHg 77%
    10:00 +20°C° 0 mm 1 mps 745 mmHg 72%
    11:00 +21°C° 0 mm 1 mps 745 mmHg 68%
    12:00 +21°C° 0 mm 1 mps 744 mmHg 66%
    13:00 +20°C° 0 mm 2 mps 744 mmHg 64%
    14:00 +21°C° 0 mm 2 mps 744 mmHg 62%
    15:00 +20°C° 0 mm 2 mps 744 mmHg 65%
    16:00 +20°C° 0 mm 2 mps 744 mmHg 67%
    17:00 +20°C° 0 mm 2 mps 743 mmHg 70%
    18:00 +18°C° 0 mm 2 mps 744 mmHg 77%
    19:00 +16°C° 0 mm 2 mps 744 mmHg 84%
    20:00 +14°C° 0 mm 2 mps 745 mmHg 91%
    21:00 +14°C° 0 mm 2 mps 744 mmHg 92%
    22:00 +14°C° 0 mm 2 mps 744 mmHg 93%
    23:00 +13°C° 0 mm 1 mps 744 mmHg 94%

    Day after tomorrow, 11 April, Saturday

    Time Temperature Precipitation Wind Pressure Humidity
    00:00 +13°C° 0 mm 1 mps 744 mmHg 94%
    01:00 +12°C° 0 mm 1 mps 744 mmHg 94%
    02:00 +12°C° 0 mm 1 mps 744 mmHg 95%
    03:00 +12°C° 0 mm 1 mps 743 mmHg 95%
    04:00 +11°C° 0 mm 1 mps 743 mmHg 95%
    05:00 +11°C° 0 mm 1 mps 743 mmHg 95%
    06:00 +13°C° 0 mm 2 mps 744 mmHg 90%
    07:00 +14°C° 0 mm 2 mps 744 mmHg 84%
    08:00 +16°C° 0 mm 2 mps 744 mmHg 79%
    09:00 +18°C° 0 mm 2 mps 744 mmHg 73%
    10:00 +19°C° 0 mm 2 mps 744 mmHg 66%
    11:00 +21°C° 0 mm 2 mps 744 mmHg 60%
    12:00 +21°C° 0 mm 3 mps 743 mmHg 58%
    13:00 +22°C° 0 mm 3 mps 743 mmHg 55%
    14:00 +22°C° 0 mm 3 mps 742 mmHg 53%
    15:00 +21°C° 0 mm 3 mps 742 mmHg 57%
    16:00 +20°C° 0 mm 3 mps 742 mmHg 62%
    17:00 +20°C° 0 mm 3 mps 742 mmHg 67%
    18:00 +18°C° 0 mm 3 mps 742 mmHg 72%
    19:00 +15°C° 0 mm 4 mps 742 mmHg 78%
    20:00 +13°C° 0 mm 4 mps 743 mmHg 84%
    21:00 +12°C° 0 mm 3 mps 743 mmHg 87%
    22:00 +11°C° 0 mm 3 mps 742 mmHg 89%
    23:00 +10°C° 0 mm 2 mps 742 mmHg 91%

    12 April, Sunday

    Time Temperature Precipitation Wind Pressure Humidity
    00:00 +9°C° 0 mm 2 mps 742 mmHg 93%
    01:00 +9°C° 0 mm 2 mps 742 mmHg 95%
    02:00 +8°C° 0 mm 2 mps 741 mmHg 96%
    03:00 +9°C° 0 mm 2 mps 741 mmHg 96%
    04:00 +9°C° 0 mm 2 mps 741 mmHg 96%
    05:00 +9°C° 0 mm 2 mps 741 mmHg 95%
    06:00 +10°C° 0 mm 2 mps 741 mmHg 91%
    07:00 +12°C° 0 mm 2 mps 741 mmHg 87%
    08:00 +13°C° 0 mm 2 mps 741 mmHg 82%
    09:00 +15°C° 0 mm 2 mps 741 mmHg 75%
    10:00 +17°C° 0 mm 2 mps 741 mmHg 68%
    11:00 +19°C° 0 mm 3 mps 741 mmHg 60%
    12:00 +19°C° 0 mm 3 mps 741 mmHg 61%
    13:00 +19°C° 0 mm 3 mps 740 mmHg 61%
    14:00 +19°C° 0 mm 3 mps 740 mmHg 61%
    15:00 +19°C° 0.1 mm 3 mps 739 mmHg 66%
    16:00 +18°C° 0.1 mm 3 mps 739 mmHg 72%
    17:00 +17°C° 0.1 mm 3 mps 739 mmHg 77%
    18:00 +16°C° 0 mm 3 mps 739 mmHg 82%
    19:00 +13°C° 0 mm 3 mps 739 mmHg 87%
    20:00 +12°C° 0 mm 3 mps 739 mmHg 93%
    21:00 +11°C° 0 mm 3 mps 739 mmHg 94%
    22:00 +11°C° 0 mm 3 mps 739 mmHg 94%
    23:00 +10°C° 0 mm 3 mps 739 mmHg 95%

    13 April, Monday

    Time Temperature Precipitation Wind Pressure Humidity
    00:00 +10°C° 0 mm 3 mps 738 mmHg 96%
    01:00 +9°C° 0 mm 3 mps 737 mmHg 97%
    02:00 +9°C° 0 mm 2 mps 737 mmHg 97%
    03:00 +9°C° 0 mm 2 mps 737 mmHg 97%
    04:00 +8°C° 0 mm 2 mps 736 mmHg 97%
    05:00 +8°C° 0 mm 2 mps 736 mmHg 97%
    06:00 +10°C° 0 mm 2 mps 736 mmHg 91%
    07:00 +13°C° 0 mm 2 mps 737 mmHg 85%
    08:00 +13°C° 0 mm 3 mps 737 mmHg 79%
    09:00 +14°C° 0.1 mm 3 mps 737 mmHg 75%
    10:00 +16°C° 0.1 mm 3 mps 736 mmHg 71%
    11:00 +17°C° 0.1 mm 3 mps 736 mmHg 68%
    12:00 +17°C° 0.2 mm 3 mps 736 mmHg 67%
    13:00 +17°C° 0.2 mm 4 mps 736 mmHg 66%
    14:00 +17°C° 0.2 mm 4 mps 736 mmHg 65%
    15:00 +17°C° 0 mm 4 mps 736 mmHg 66%
    16:00 +15°C° 0 mm 5 mps 736 mmHg 66%
    17:00 +14°C° 0 mm 5 mps 736 mmHg 66%
    18:00 +12°C° 0 mm 4 mps 736 mmHg 72%
    19:00 +10°C° 0 mm 3 mps 736 mmHg 78%
    20:00 +8°C° 0 mm 2 mps 736 mmHg 84%
    21:00 +7°C° 0 mm 2 mps 736 mmHg 85%
    22:00 +7°C° 0 mm 2 mps 736 mmHg 86%
    23:00 +7°C° 0 mm 1 mps 737 mmHg 88%

    14 April, Tuesday

    Time Temperature Precipitation Wind Pressure Humidity
    00:00 +7°C° 0 mm 1 mps 736 mmHg 88%
    01:00 +7°C° 0 mm 1 mps 736 mmHg 89%
    02:00 +7°C° 0 mm 1 mps 736 mmHg 90%
    03:00 +7°C° 0 mm 1 mps 736 mmHg 90%
    04:00 +7°C° 0 mm 1 mps 736 mmHg 90%
    05:00 +7°C° 0 mm 1 mps 736 mmHg 91%
    06:00 +9°C° 0 mm 1 mps 736 mmHg 82%
    07:00 +10°C° 0 mm 2 mps 736 mmHg 74%
    08:00 +13°C° 0 mm 2 mps 736 mmHg 65%
    09:00 +14°C° 0 mm 3 mps 736 mmHg 61%
    10:00 +16°C° 0 mm 3 mps 736 mmHg 58%
    11:00 +18°C° 0 mm 4 mps 736 mmHg 54%
    12:00 +16°C° 0.6 mm 5 mps 736 mmHg 60%
    13:00 +16°C° 0.6 mm 5 mps 735 mmHg 67%
    14:00 +15°C° 0.6 mm 5 mps 735 mmHg 73%
    15:00 +15°C° 0.6 mm 5 mps 735 mmHg 74%
    16:00 +15°C° 0.6 mm 4 mps 734 mmHg 74%
    17:00 +15°C° 0.6 mm 4 mps 734 mmHg 74%
    18:00 +13°C° 0.1 mm 3 mps 735 mmHg 78%
    19:00 +13°C° 0.1 mm 2 mps 735 mmHg 82%
    20:00 +10°C° 0.1 mm 2 mps 735 mmHg 87%
    21:00 +10°C° 0 mm 2 mps 735 mmHg 89%
    22:00 +10°C° 0 mm 2 mps 735 mmHg 91%
    23:00 +9°C° 0 mm 2 mps 735 mmHg 94%
    Show more